Regional Weather Roundup
Issued by NWS Northern Indiana

Home | Current Version | Previous Version | Graphics & Text | Print | Product List | Glossary On
Versions: 1 2 3 4 5 6 7 8 9 10 11 12 13 14 15 16 17 18 19 20 21 22 23 24 25 26 27 28 29 30 31 32 33 34 35 36 37 38 39 40 41 42 43 44 45 46 47 48 49 50
092
ASUS43 KIWX 202000
RWRIWX

KIWX WEATHER ROUNDUP
NATIONAL WEATHER SERVICE NORTHERN INDIANA
300 PM EST TUE FEB 20 2018

NOTE: "FAIR" INDICATES FEW OR NO CLOUDS BELOW 12,000 FEET WITH NO
SIGNIFICANT WEATHER AND/OR OBSTRUCTIONS TO VISIBILITY.

* THESE STATIONS ARE NOT UNDER NWS QUALITY CONTROL. THEY ALSO MAY NOT
  REPORT WEATHER SUCH AS PRECIPITATION OR FOG.

INZ001>027-202100-
NORTHERN INDIANA

CITY           SKY/WX    TMP DP  RH WIND       PRES   REMARKS
GARY*          LGT RAIN  66  61  82 S16G32    29.84F
MICHIGAN CITY* LGT RAIN  63  63 100 S17G28    29.87F
SOUTH BEND     LGT RAIN  62  59  90 SW21G30   29.91F
ELKHART*       LGT RAIN  61  59  94 SW12      29.92F
GOSHEN         LGT RAIN  63  59  87 MISG      29.93F
MONTICELLO*    DRIZZLE   65  62  90 S15G24    29.93F
WARSAW*        LGT RAIN  61  59  94 S6        29.95F
AUBURN*        PTSUNNY   63  61  94 S8        29.98F
FORT WAYNE     PTSUNNY   68  60  75 S15       29.99F

$$
INZ028>050-202100-
CENTRAL INDIANA

CITY           SKY/WX    TMP DP  RH WIND       PRES   REMARKS
LAFAYETTE      LGT RAIN  67  60  78 S13G22    29.93F
KOKOMO*        PTSUNNY   69  59  70 SW17G24   29.98F
MUNCIE*        PTSUNNY   76  55  48 SW22G33   30.01S
INDIANAPOLIS   PTSUNNY   75  55  49 S23G35    30.00F

$$
MIZ043>046-050>051-056>058-064>065-071>073-077>080-202100-
SOUTHWEST LOWER MICHIGAN

CITY           SKY/WX    TMP DP  RH WIND       PRES   REMARKS
BATTLE CREEK   RAIN      61  59  93 S18G25    29.91F FOG
BENTON HARBOR  RAIN      63  59  87 S15G26    29.86F FOG
COLDWATER*     RAIN      61  61 100 S14G23    29.95S
HILLSDALE*     LGT RAIN  59  55  88 S16G24    29.97F
HOLLAND        CLOUDY    65  59  81 SW26G37   29.83F
GRAND RAPIDS   LGT RAIN  62  60  93 S12       29.85F
KALAMAZOO      LGT RAIN  62  59  90 S16       29.91F FOG
STURGIS*       RAIN      62  60  94 SW21      29.93F
THREE RIVERS*  LGT RAIN  61  61  99 SW14G21   29.92F

$$
OHZ001>008-015>018-024>025-202100-
NORTHWEST OHIO

CITY           SKY/WX    TMP DP  RH WIND       PRES   REMARKS
DEFIANCE       CLOUDY    65  60  84 S10       29.99F
FINDLAY        FAIR      72  58  61 S20G28    30.03F
TOLEDO EXPRESS CLOUDY    63  63 100 S5        30.00F
TOLEDO METCALF PTSUNNY   66  61  84 SW10      30.02F
LIMA           FAIR      71  58  63 S15G29    30.04F

$$
AND FOR LAKE MICHIGAN COASTAL AND OPEN LAKE BUOY OBSERVATIONS

STATION/POSITION TEMP    WIND        PRES    VSBY  WAVE
                 AIR SEA DIR/SP/G                  HT/PER
                 (F)     (DEG/KT/KT) (MB)    (MI)  (FT/S)
CALUMET HARBOR    63     180/ 16/ 22 1009.3F
MICHIGAN CITY     62     190/ 24/ 32   N/A
BURNS HARBOR      62     200/ 22/ 32 1011.2F
SAINT JOSEPH      62     200/ 19/ 29 1012.2

$$
&&




USA.gov is the U.S. government's official web portal to all federal, state and local government web resources and services.